[[{"header":{"parameterUnit":"m.s-1","parameterCategory":2,"la1":30.2991,"la2":30.254,"lo1":-89.0895,"lo2":-89.0444,"dy":0.0017,"dx":0.0017,"nx":28,"ny":28,"refTime":"2025-07-31T03:00:00:Z","depth":"0","parameterNumber":2,"parameterNumberName":"U-component_of_CURRENTS"},"data":[0,0,0,0,0,0,0,0,0,0,0,0,0,0,0,0,0,0,0,0,0,0,0,0,0,0,0,0,0,0,0,0,0,0,0,0,0,0,0,0,0,0,0,0,0,0,0,0,0,0,0,0,0,0,0,0,0,0,0.2609,0.2609,0,0.2656,0.2656,0.2657,0.269,0.2691,0.2691,0.2691,0.2771,0.2773,0.2775,0,0,0,0,0,0,0,0,0,0,0,0,0,0.2582,0.2582,0.2609,0.2609,0.261,0.2656,0.2656,0.2657,0.269,0.2691,0.2691,0.2691,0.2771,0.2773,0.2775,0,0,0,0,0,0,0,0,0,0,0,0,0,0.2608,0.2582,0.2609,0.2632,0.2635,0.2656,0.2656,0.2657,0.269,0.2691,0.2691,0.2691,0.277,0.2773,0.2775,0.2785,0,0,0.2784,0.2785,0,0,0,0,0,0,0,0,0.2606,0.2609,0.2628,0.263,0.2633,0.2668,0.2677,0.2702,0.269,0.2669,0.2691,0.2692,0.2739,0.2745,0.2752,0.2789,0.2792,0.2784,0.2786,0.2787,0.2788,0,0,0,0,0,0,0,0.2604,0.2607,0.2627,0.2629,0.2632,0.2652,0.2656,0.2682,0.2702,0.2671,0.2673,0.2679,0.2741,0.2749,0.2754,0.2793,0.2784,0.2787,0.2789,0.279,0.2916,0.2918,0,0,0,0,0,0,0.2596,0.2605,0.2626,0.2629,0.2621,0.2652,0.2656,0.2656,0.2701,0.2708,0.2678,0.268,0.2744,0.2751,0.2757,0.2811,0.2787,0.279,0.2792,0.2915,0.2917,0.2918,0,0,0,0,0,0,0.2596,0.2598,0.2624,0.2619,0.2623,0.2652,0.2652,0.2657,0.2669,0.2706,0.2714,0.2685,0.2745,0.2753,0.2794,0.2813,0.2791,0.2794,0.2913,0.2915,0.2917,0.2894,0,0,0,0,0,0,0.2594,0.2597,0.2589,0.2618,0.2623,0.2629,0.2651,0.2658,0.2671,0.2674,0.2715,0.2722,0.2746,0.279,0.2797,0.2817,0.2796,0.291,0.2914,0.2917,0.2892,0.2895,0.2897,0,0,0,0,0,0.2593,0.2577,0.2588,0.2591,0.2613,0.2629,0.2633,0.2656,0.2671,0.2669,0.2712,0.2721,0.2816,0.2793,0.2801,0.2822,0.2909,0.2913,0.2916,0.2891,0.2894,0.2897,0,0,0,0,0,0,0.2553,0.258,0.2593,0.2583,0.2603,0.2634,0.2631,0.2655,0.2686,0.269,0.2733,0.2743,0.2794,0.2813,0.2787,0.2873,0.2868,0.2873,0.2846,0.2849,0.2852,0.2845,0.2798,0,0,0,0,0,0.2543,0.2545,0.2572,0.2566,0.2571,0.2603,0.2612,0.2629,0.2662,0.2676,0.271,0.2758,0.2815,0.2833,0.2877,0.2909,0.2948,0.2934,0.2937,0.2938,0.2942,0.302,0.3029,0.2931,0.2931,0.2931,0,0,0.2527,0.2542,0.2543,0.2559,0.2574,0.2583,0.2609,0.2617,0.2638,0.268,0.2714,0.2765,0.2829,0.2877,0.29,0.2892,0.2988,0.2943,0.2944,0.2946,0.3025,0.3034,0.3043,0.2933,0.2933,0.2932,0,0,0.2496,0.2507,0.2498,0.2514,0.2535,0.2561,0.2563,0.2595,0.262,0.2658,0.2713,0.2772,0.2831,0.2889,0.2927,0.2969,0.3004,0.2988,0.2985,0.3061,0.3069,0.3076,0.3136,0.3149,0.2982,0.2982,0.2982,0,0.2472,0.2471,0.2497,0.2495,0.2509,0.2551,0.255,0.2583,0.2629,0.2661,0.2664,0.28,0.2841,0.2936,0.2955,0.2973,0.3018,0.2961,0.3062,0.307,0.3078,0.3137,0.3152,0.2981,0.2981,0.2981,0.2981,0,0.2444,0.2443,0.2437,0.2458,0.2475,0.2479,0.2528,0.2556,0.2594,0.2639,0.2728,0.2796,0.2879,0.2909,0.2943,0.3035,0.305,0.3058,0.3045,0.3086,0.3147,0.3162,0.298,0.298,0.2981,0.2981,0,0,0.2392,0.2412,0.2411,0.2416,0.2457,0.2468,0.251,0.2566,0.2605,0.2664,0.2729,0.2833,0.2878,0.2927,0.2986,0.3049,0.3144,0.3074,0.3078,0.3117,0.3309,0.3253,0.3265,0.317,0.3173,0.3175,0.3326,0,0.2361,0.2349,0.2377,0.238,0.2379,0.2437,0.2476,0.2538,0.26,0.2671,0.277,0.2847,0.2886,0.2927,0.3004,0.3123,0.3185,0.3102,0.3278,0.3283,0.3215,0.3281,0.3132,0.3247,0.3341,0.3344,0.3346,0,0.2327,0.2326,0.2314,0.2349,0.2354,0.2369,0.2445,0.2485,0.2603,0.2653,0.2753,0.2833,0.2965,0.297,0.3183,0.3131,0.3216,0.3291,0.3299,0.3264,0.3256,0.3225,0.3273,0.3116,0.337,0.3369,0.3367,0,0.228,0.2287,0.2278,0.2286,0.233,0.2346,0.2381,0.2478,0.2524,0.2644,0.2693,0.2854,0.2936,0.3082,0.3239,0.3223,0.3456,0.345,0.3478,0.3475,0.3391,0.3375,0.3292,0.3581,0.3581,0.3581,0.358,0,0.224,0.2231,0.2251,0.2244,0.2251,0.2299,0.2332,0.2393,0.249,0.2554,0.2677,0.2762,0.2968,0.3123,0.3257,0.3424,0.3476,0.3495,0.3518,0.3378,0.336,0.3253,0.3182,0.3586,0.3585,0.3584,0.3583,0,0.2189,0.2198,0.2188,0.2215,0.2223,0.2229,0.2286,0.2323,0.2409,0.2498,0.2535,0.2722,0.2915,0.3109,0.3351,0.3431,0.3488,0.3632,0.3443,0.344,0.3289,0.3223,0.3155,0.309,0.3691,0.3691,0.3691,0,0.2163,0.2148,0.2157,0.2154,0.216,0.2176,0.2198,0.2275,0.2319,0.2476,0.2522,0.2713,0.2848,0.3171,0.3355,0.3572,0.3461,0.3526,0.3458,0.3266,0.3212,0.3109,0.3052,0.3348,0.3345,0.3342,0.334,0,0.2118,0.2119,0.2116,0.2109,0.2113,0.2123,0.2156,0.2176,0.2282,0.2353,0.2477,0.2587,0.2871,0.3023,0.3276,0.34,0.3304,0.3478,0.3338,0.2982,0.281,0.2761,0.3255,0.3317,0.332,0.3321,0.3323,0.3323,0.2094,0.2084,0.2085,0.2077,0.2076,0.2078,0.2073,0.212,0.2173,0.2264,0.2398,0.2512,0.2693,0.3031,0.313,0.3123,0.3175,0.3052,0.3009,0.2939,0.279,0.322,0.3264,0.3266,0.3267,0.3269,0.327,0,0.2083,0.2075,0.2061,0.2047,0.2027,0.2042,0.2056,0.2045,0.2076,0.2166,0.2256,0.2367,0.2489,0.2629,0.2715,0.2651,0.2607,0.2573,0.2371,0.2362,0.2794,0.2687,0.2533,0.2533,0.2533,0.2534,0.2534,0.2534,0.208,0.2065,0.2055,0.2012,0.1995,0.1952,0.1946,0.1931,0.1963,0.1971,0.1993,0.2075,0.2175,0.2205,0.2152,0.2155,0.2004,0.1934,0.1966,0.2208,0.2248,0.2286,0.2166,0.1905,0.1904,0.1455,0.1451,0.1448]},{"header":{"parameterUnit":"m.s-1","parameterCategory":2,"la1":30.2991,"la2":30.254,"lo1":-89.0895,"lo2":-89.0444,"dy":0.0017,"dx":0.0017,"nx":28,"ny":28,"refTime":"2025-07-31T03:00:00:Z","depth":"0","parameterNumber":3,"parameterNumberName":"V-component_of_CURRENTS"},"data":[0,0,0,0,0,0,0,0,0,0,0,0,0,0,0,0,0,0,0,0,0,0,0,0,0,0,0,0,0,0,0,0,0,0,0,0,0,0,0,0,0,0,0,0,0,0,0,0,0,0,0,0,0,0,0,0,0,0,0.1032,0.1032,0,0.1048,0.1048,0.1048,0.1038,0.1038,0.1038,0.1037,0.0947,0.0945,0.0943,0,0,0,0,0,0,0,0,0,0,0,0,0,0.0979,0.098,0.1032,0.1032,0.1032,0.1048,0.1048,0.1048,0.1038,0.1038,0.1038,0.1037,0.0948,0.0945,0.0943,0,0,0,0,0,0,0,0,0,0,0,0,0,0.0997,0.098,0.1032,0.1031,0.1032,0.1048,0.1048,0.1048,0.1038,0.1038,0.1038,0.1037,0.0949,0.0945,0.0942,0.0929,0,0,0.0932,0.0931,0,0,0,0,0,0,0,0,0.0996,0.0998,0.1031,0.1031,0.1032,0.1043,0.0996,0.1004,0.1038,0.1033,0.1037,0.1037,0.0971,0.0966,0.0968,0.0925,0.0921,0.0932,0.093,0.0929,0.0928,0,0,0,0,0,0,0,0.0995,0.0998,0.1036,0.1031,0.1032,0.1026,0.1028,0.0998,0.1,0.1034,0.1033,0.1039,0.097,0.0971,0.0965,0.092,0.0932,0.0929,0.0927,0.0926,0.0856,0.0856,0,0,0,0,0,0,0.0999,0.0997,0.1035,0.1036,0.1015,0.1028,0.103,0.1038,0.1003,0.0999,0.104,0.1039,0.0977,0.0969,0.0962,0.095,0.0929,0.0925,0.0924,0.0856,0.0856,0.0856,0,0,0,0,0,0,0.0998,0.1002,0.1034,0.1018,0.1022,0.1029,0.1038,0.1038,0.104,0.1009,0.1002,0.1042,0.0976,0.0967,0.0938,0.0946,0.0924,0.0921,0.0856,0.0856,0.0856,0.0921,0,0,0,0,0,0,0.0996,0.1002,0.1005,0.1019,0.1024,0.1045,0.1039,0.1039,0.1046,0.1045,0.1008,0.1,0.0975,0.0943,0.0935,0.0941,0.0918,0.0856,0.0856,0.0856,0.0919,0.0924,0.0928,0,0,0,0,0,0.0994,0.1001,0.1005,0.101,0.103,0.1046,0.1047,0.1049,0.1046,0.1048,0.1025,0.1001,0.0938,0.0941,0.0931,0.0936,0.0856,0.0856,0.0856,0.0917,0.0923,0.0928,0,0,0,0,0,0,0.0973,0.1001,0.1006,0.1019,0.1033,0.1045,0.1048,0.1052,0.1038,0.1032,0.1001,0.0991,0.0971,0.0941,0.0944,0.0916,0.0893,0.0892,0.0943,0.0948,0.0952,0.096,0.0916,0,0,0,0,0,0.0974,0.099,0.101,0.1021,0.1028,0.1039,0.1044,0.1049,0.1043,0.1038,0.1017,0.0988,0.0965,0.0947,0.0921,0.0902,0.0875,0.0898,0.0903,0.0907,0.0905,0.0871,0.0872,0.0857,0.0857,0.0857,0,0,0.097,0.0987,0.0996,0.1018,0.1027,0.1043,0.104,0.1053,0.1063,0.1027,0.1025,0.1002,0.0963,0.0948,0.0936,0.0923,0.0899,0.0907,0.0911,0.0907,0.0871,0.0873,0.0874,0.0857,0.0857,0.0857,0,0,0.0972,0.0984,0.0999,0.1014,0.1034,0.1045,0.105,0.1065,0.1067,0.1064,0.1044,0.1025,0.099,0.097,0.0952,0.0961,0.0926,0.0953,0.0978,0.0946,0.0947,0.0947,0.0931,0.0929,0.0953,0.0953,0.0954,0,0.0961,0.0988,0.1003,0.1021,0.1036,0.1047,0.1065,0.1071,0.1075,0.1078,0.1067,0.1032,0.1,0.0984,0.099,0.0971,0.0952,0.0966,0.0952,0.0952,0.0952,0.0934,0.0932,0.0957,0.0956,0.0956,0.0956,0,0.0979,0.0999,0.1007,0.1038,0.1054,0.1071,0.1089,0.1099,0.1103,0.111,0.1101,0.1066,0.1046,0.1035,0.1013,0.1,0.0989,0.0966,0.0943,0.0957,0.0938,0.0934,0.0961,0.096,0.0959,0.0958,0,0,0.0954,0.1009,0.1011,0.1032,0.1066,0.1082,0.1103,0.1126,0.1142,0.1136,0.1151,0.1113,0.1104,0.1083,0.1058,0.1029,0.1014,0.1,0.0997,0.0992,0.0955,0.0933,0.0927,0.099,0.099,0.0989,0.0949,0,0.0959,0.0999,0.1027,0.1063,0.1084,0.1109,0.1131,0.1152,0.1164,0.118,0.1154,0.1151,0.112,0.1114,0.1083,0.1038,0.1004,0.1027,0.0934,0.0932,0.0917,0.0921,0.0924,0.0887,0.0945,0.0945,0.0944,0,0.0964,0.0993,0.103,0.1084,0.1096,0.1118,0.1159,0.1182,0.1207,0.1215,0.1214,0.1203,0.1181,0.1141,0.1069,0.1088,0.1022,0.0978,0.0974,0.0926,0.0902,0.0877,0.0877,0.0787,0.0938,0.0938,0.0939,0,0.0939,0.0994,0.1026,0.1044,0.1102,0.1121,0.1151,0.1187,0.1213,0.1238,0.1259,0.1235,0.1225,0.1151,0.108,0.1069,0.0995,0.0965,0.088,0.0879,0.0847,0.0844,0.0752,0.0886,0.0887,0.0887,0.0887,0,0.0935,0.0957,0.1017,0.1033,0.1072,0.1115,0.1154,0.1184,0.1229,0.1267,0.1272,0.1294,0.1223,0.1185,0.11,0.0997,0.1008,0.0885,0.0863,0.0871,0.087,0.0762,0.0717,0.0885,0.0886,0.0886,0.0886,0,0.0903,0.0942,0.0978,0.104,0.1061,0.1087,0.1159,0.1191,0.1237,0.1287,0.1299,0.1331,0.1295,0.1223,0.1113,0.1022,0.0878,0.0872,0.09,0.0881,0.0707,0.0667,0.0571,0.0562,0.077,0.0769,0.0768,0,0.0891,0.0908,0.0974,0.0999,0.1026,0.1074,0.1113,0.1179,0.1223,0.1312,0.1338,0.1342,0.1357,0.1221,0.1071,0.0929,0.0854,0.0811,0.0774,0.0696,0.0635,0.0628,0.0629,0.0766,0.0765,0.0764,0.0764,0,0.0868,0.0889,0.0923,0.0976,0.1017,0.1074,0.1137,0.1176,0.1263,0.1319,0.1394,0.1423,0.1329,0.1217,0.1036,0.0925,0.077,0.0792,0.0698,0.061,0.061,0.0593,0.0806,0.0759,0.0759,0.076,0.076,0.076,0.0844,0.0863,0.0912,0.0958,0.101,0.1078,0.1119,0.1198,0.1279,0.1383,0.1423,0.1484,0.1336,0.1106,0.0968,0.069,0.0707,0.0586,0.0542,0.0543,0.0532,0.0741,0.0674,0.0674,0.0674,0.0674,0.0674,0,0.0825,0.0857,0.0897,0.0961,0.1007,0.1048,0.1141,0.1191,0.1282,0.1395,0.147,0.1437,0.1238,0.1028,0.066,0.0472,0.0449,0.0372,0.0358,0.037,0.0535,0.0531,0.0447,0.0447,0.0447,0.0447,0.0447,0.0447,0.0818,0.0849,0.0877,0.0944,0.0989,0.1051,0.1101,0.1189,0.128,0.1388,0.1436,0.1487,0.1308,0.0701,0.0317,0.0248,0.0171,0.0137,0.0105,0.0193,0.021,0.0226,0.0212,0.0062,0.0061,-0.0012,-0.0013,-0.0014]}],[{"header":{"parameterUnit":"m.s-1","parameterCategory":2,"la1":30.2991,"la2":30.254,"lo1":-89.0895,"lo2":-89.0444,"dy":0.0017,"dx":0.0017,"nx":28,"ny":28,"refTime":"2025-07-31T03:00:00:Z","depth":"2","parameterNumber":2,"parameterNumberName":"U-component_of_CURRENTS"},"data":[0,0,0,0,0,0,0,0,0,0,0,0,0,0,0,0,0,0,0,0,0,0,0,0,0,0,0,0,0,0,0,0,0,0,0,0,0,0,0,0,0,0,0,0,0,0,0,0,0,0,0,0,0,0,0,0,0,0,0.1291,0.1292,0,0.1326,0.1326,0.1326,0.1388,0.1389,0.139,0.1391,0.1478,0.1479,0.1481,0,0,0,0,0,0,0,0,0,0,0,0,0,0.1279,0.1279,0.1291,0.1292,0.1292,0.1326,0.1326,0.1327,0.1388,0.1389,0.1391,0.1392,0.1478,0.1479,0.1481,0,0,0,0,0,0,0,0,0,0,0,0,0,0.1295,0.1279,0.1291,0.1327,0.1331,0.1326,0.1326,0.1327,0.1387,0.1389,0.1391,0.1393,0.1477,0.1479,0.1481,0.1456,0,0,0.1486,0.1487,0,0,0,0,0,0,0,0,0.1294,0.1296,0.1321,0.1325,0.1329,0.1355,0.1354,0.1373,0.1387,0.1365,0.1391,0.1393,0.1441,0.1446,0.1447,0.146,0.1463,0.1486,0.1488,0.1488,0.1489,0,0,0,0,0,0,0,0.1293,0.1295,0.1305,0.1322,0.1326,0.1342,0.1346,0.1357,0.1393,0.1367,0.1372,0.1376,0.1443,0.1445,0.1449,0.1465,0.1486,0.1488,0.1489,0.149,0.1544,0.1544,0,0,0,0,0,0,0.1288,0.1293,0.1303,0.1306,0.1316,0.134,0.1345,0.1344,0.1392,0.1401,0.1374,0.1379,0.1441,0.1447,0.1453,0.1513,0.1488,0.149,0.1491,0.1543,0.1544,0.1544,0,0,0,0,0,0,0.1287,0.1288,0.1302,0.1301,0.1304,0.1339,0.1337,0.1344,0.1375,0.1397,0.1407,0.1402,0.1443,0.145,0.1488,0.1514,0.1491,0.1492,0.1543,0.1543,0.1544,0.1579,0,0,0,0,0,0,0.1286,0.1287,0.1291,0.13,0.1304,0.1313,0.1336,0.1343,0.1373,0.138,0.1423,0.1431,0.1445,0.1485,0.1489,0.1516,0.1494,0.1542,0.1543,0.1544,0.1577,0.158,0.1583,0,0,0,0,0,0.1286,0.1281,0.1291,0.1293,0.1306,0.1314,0.1317,0.1347,0.1373,0.1383,0.1418,0.1431,0.1493,0.1486,0.1492,0.152,0.1542,0.1543,0.1544,0.1576,0.158,0.1583,0,0,0,0,0,0,0.1284,0.1287,0.1298,0.1298,0.1312,0.1325,0.1339,0.1358,0.1391,0.1409,0.1435,0.1445,0.149,0.1491,0.1484,0.1535,0.152,0.1521,0.1542,0.1546,0.1549,0.1554,0.1495,0,0,0,0,0,0.1281,0.1278,0.1289,0.1291,0.1302,0.1324,0.1336,0.1356,0.1381,0.1399,0.1432,0.1462,0.1489,0.1509,0.1529,0.1552,0.1558,0.1572,0.1575,0.1578,0.1584,0.1612,0.1619,0.1547,0.1547,0.1547,0,0,0.1281,0.1283,0.1283,0.1291,0.1308,0.1319,0.1337,0.136,0.138,0.1402,0.1451,0.1478,0.1497,0.1532,0.1551,0.1543,0.16,0.1579,0.1581,0.1586,0.1614,0.1621,0.1628,0.1547,0.1547,0.1547,0,0,0.1273,0.1285,0.1281,0.1293,0.1317,0.1329,0.1341,0.137,0.1399,0.1433,0.1462,0.1503,0.1538,0.1562,0.1576,0.1602,0.1617,0.1613,0.1636,0.1663,0.167,0.1676,0.1689,0.1696,0.1613,0.1614,0.1614,0,0.1279,0.1272,0.1283,0.1289,0.1303,0.1336,0.1347,0.1372,0.1413,0.1441,0.1456,0.153,0.155,0.1595,0.1612,0.1612,0.1627,0.1624,0.1669,0.1675,0.168,0.1693,0.17,0.1615,0.1615,0.1615,0.1615,0,0.1263,0.1272,0.1277,0.1292,0.1307,0.1324,0.1357,0.1391,0.1432,0.1461,0.1526,0.1557,0.1604,0.1617,0.1627,0.168,0.1679,0.1672,0.1663,0.169,0.1701,0.1708,0.1618,0.1617,0.1617,0.1616,0,0,0.1251,0.1262,0.1267,0.1277,0.1314,0.1322,0.1365,0.1407,0.1444,0.1499,0.1549,0.1604,0.1641,0.1658,0.1683,0.1709,0.1761,0.1715,0.1716,0.1734,0.1824,0.1698,0.1693,0.1773,0.1774,0.1775,0.1815,0,0.1245,0.124,0.1255,0.1274,0.1282,0.1328,0.136,0.1407,0.1459,0.1517,0.1574,0.163,0.1651,0.1686,0.172,0.1759,0.1782,0.1751,0.179,0.1791,0.168,0.1697,0.1544,0.1555,0.1822,0.1823,0.1823,0,0.1238,0.123,0.1239,0.1265,0.1276,0.1303,0.1367,0.1397,0.1483,0.1529,0.1604,0.1653,0.1729,0.1727,0.1812,0.1799,0.1818,0.1833,0.1834,0.171,0.1677,0.1571,0.1557,0.1835,0.1834,0.1833,0.1832,0,0.1223,0.1231,0.1234,0.1244,0.1275,0.131,0.1341,0.1416,0.1453,0.1552,0.1595,0.1686,0.1743,0.1792,0.1851,0.1841,0.1924,0.1905,0.1803,0.1795,0.1665,0.1641,0.1946,0.1946,0.1946,0.1945,0.1945,0,0.1219,0.1234,0.1233,0.1241,0.1276,0.1296,0.1354,0.141,0.1472,0.1518,0.1609,0.1662,0.1766,0.183,0.1864,0.186,0.1939,0.1809,0.1797,0.1669,0.1646,0.1888,0.1881,0.1947,0.1947,0.1946,0.1946,0,0.124,0.1232,0.1238,0.1252,0.1282,0.1308,0.1374,0.1387,0.1463,0.1526,0.1562,0.167,0.1751,0.1827,0.1906,0.1859,0.1874,0.1848,0.1684,0.1649,0.172,0.1714,0.1722,0.1718,0.1715,0.1712,0.1709,0,0.1256,0.1252,0.126,0.1269,0.1297,0.1337,0.1358,0.1408,0.1413,0.1522,0.1535,0.1646,0.1697,0.1757,0.1689,0.1686,0.1824,0.1549,0.1477,0.1709,0.1698,0.1698,0.1697,0.1331,0.1326,0.1322,0.1318,0,0.127,0.1268,0.1259,0.128,0.13,0.1308,0.1338,0.1344,0.1382,0.1435,0.15,0.1553,0.1562,0.1488,0.1458,0.1431,0.1531,0.1452,0.1769,0.139,0.1338,0.1327,0.134,0.1279,0.1283,0.1286,0.1288,0.129,0.1283,0.1274,0.1248,0.1282,0.1288,0.1268,0.1272,0.1265,0.128,0.1322,0.1396,0.1408,0.1297,0.1148,0.114,0.1145,0.1202,0.1187,0.1202,0.1223,0.1148,0.109,0.0972,0.0974,0.0976,0.0977,0.0979,0,0.1271,0.1267,0.1258,0.1241,0.1213,0.1272,0.1242,0.1198,0.1199,0.1212,0.1257,0.1016,0.0934,0.0952,0.0846,0.078,0.0793,0.0826,0.0869,0.0903,0.0935,0.085,0.0594,0.0594,0.0593,0.0593,0,0,0.1254,0.1214,0.1196,0.1157,0.1197,0.1182,0.1181,0.1119,0.108,0.1004,0.0973,0.0897,0.0853,0.0671,0.0624,0.0665,0.0803,0.0636,0.0926,0.101,0.1043,0.1096,0.0996,0,0,0,0,0]},{"header":{"parameterUnit":"m.s-1","parameterCategory":2,"la1":30.2991,"la2":30.254,"lo1":-89.0895,"lo2":-89.0444,"dy":0.0017,"dx":0.0017,"nx":28,"ny":28,"refTime":"2025-07-31T03:00:00:Z","depth":"2","parameterNumber":3,"parameterNumberName":"V-component_of_CURRENTS"},"data":[0,0,0,0,0,0,0,0,0,0,0,0,0,0,0,0,0,0,0,0,0,0,0,0,0,0,0,0,0,0,0,0,0,0,0,0,0,0,0,0,0,0,0,0,0,0,0,0,0,0,0,0,0,0,0,0,0,0,-0.0054,-0.0054,0,-0.0107,-0.0108,-0.0108,-0.0139,-0.0138,-0.0138,-0.0138,-0.0277,-0.028,-0.0284,0,0,0,0,0,0,0,0,0,0,0,0,0,-0.0038,-0.0038,-0.0054,-0.0054,-0.0055,-0.0107,-0.0108,-0.0109,-0.0139,-0.0138,-0.0138,-0.0138,-0.0275,-0.028,-0.0284,0,0,0,0,0,0,0,0,0,0,0,0,0,-0.0065,-0.0038,-0.0053,-0.0074,-0.0077,-0.0107,-0.0108,-0.0109,-0.0139,-0.0138,-0.0138,-0.0138,-0.0274,-0.0279,-0.0285,-0.0322,0,0,-0.0302,-0.0304,0,0,0,0,0,0,0,0,-0.0063,-0.0066,-0.0071,-0.0073,-0.0076,-0.0114,-0.0153,-0.0184,-0.0139,-0.0117,-0.0138,-0.0138,-0.0229,-0.0238,-0.025,-0.0328,-0.0334,-0.0303,-0.0306,-0.0308,-0.031,0,0,0,0,0,0,0,-0.0061,-0.0064,-0.0077,-0.0071,-0.0074,-0.0102,-0.0105,-0.0159,-0.0176,-0.0119,-0.0121,-0.0124,-0.0231,-0.0244,-0.0254,-0.0336,-0.0302,-0.0307,-0.0311,-0.0313,-0.0455,-0.0456,0,0,0,0,0,0,-0.0048,-0.0062,-0.0075,-0.0078,-0.0067,-0.0102,-0.0105,-0.0104,-0.0174,-0.0183,-0.0124,-0.0125,-0.0235,-0.0247,-0.0259,-0.029,-0.0308,-0.0314,-0.0317,-0.0455,-0.0455,-0.0456,0,0,0,0,0,0,-0.0047,-0.0048,-0.0073,-0.007,-0.0075,-0.0101,-0.0099,-0.0105,-0.0104,-0.0176,-0.0187,-0.0116,-0.0235,-0.0251,-0.0295,-0.0297,-0.0316,-0.0321,-0.0455,-0.0455,-0.0456,-0.0364,0,0,0,0,0,0,-0.0046,-0.0048,-0.0041,-0.0069,-0.0074,-0.0075,-0.0099,-0.0106,-0.0106,-0.0108,-0.0174,-0.0187,-0.0236,-0.0286,-0.0301,-0.0305,-0.0326,-0.0454,-0.0455,-0.0456,-0.0367,-0.0362,-0.0357,0,0,0,0,0,-0.0046,-0.0034,-0.0041,-0.0042,-0.0065,-0.0074,-0.008,-0.01,-0.0106,-0.0101,-0.0147,-0.0184,-0.0302,-0.0291,-0.0308,-0.0313,-0.0454,-0.0455,-0.0455,-0.0369,-0.0363,-0.0357,0,0,0,0,0,0,-0.0025,-0.0037,-0.0044,-0.0037,-0.0048,-0.0078,-0.0075,-0.0088,-0.0119,-0.012,-0.0187,-0.0203,-0.0244,-0.0293,-0.0279,-0.0359,-0.0386,-0.039,-0.0314,-0.0309,-0.0305,-0.0283,-0.033,0,0,0,0,0,-0.0017,-0.0011,-0.0027,-0.0022,-0.0021,-0.0044,-0.005,-0.0061,-0.0091,-0.0103,-0.0147,-0.0206,-0.0264,-0.0294,-0.0348,-0.039,-0.0424,-0.0408,-0.0403,-0.0398,-0.0394,-0.0453,-0.0452,-0.0459,-0.0459,-0.0459,0,0,-0.001,-0.0014,-0.0013,-0.0017,-0.0027,-0.0025,-0.0047,-0.0044,-0.0051,-0.0117,-0.0136,-0.0186,-0.027,-0.0314,-0.0338,-0.0354,-0.0409,-0.0399,-0.0395,-0.0393,-0.0453,-0.0453,-0.0452,-0.046,-0.0459,-0.0459,0,0,0.001,0.0009,0.0023,0.002,0.0017,0.0,0.0009,-0.0008,-0.002,-0.0045,-0.0099,-0.0143,-0.0222,-0.0281,-0.0325,-0.033,-0.0378,-0.0351,-0.0314,-0.037,-0.037,-0.037,-0.0382,-0.0384,-0.0353,-0.0352,-0.0352,0,0.0018,0.0034,0.0024,0.0037,0.0038,0.0018,0.0032,0.0012,-0.0019,-0.0032,-0.0038,-0.0149,-0.021,-0.0282,-0.0282,-0.0318,-0.0343,-0.0323,-0.0362,-0.0363,-0.0364,-0.0377,-0.038,-0.0348,-0.0349,-0.0349,-0.0349,0,0.0044,0.0061,0.0072,0.0078,0.0077,0.0088,0.0067,0.0063,0.005,0.0024,-0.0023,-0.0098,-0.0164,-0.0194,-0.024,-0.0289,-0.0297,-0.0341,-0.0367,-0.0357,-0.0372,-0.0377,-0.0342,-0.0344,-0.0345,-0.0346,0,0,0.0051,0.0084,0.0088,0.0104,0.0104,0.0105,0.01,0.0085,0.0084,0.0047,0.0034,-0.0061,-0.0086,-0.0138,-0.0202,-0.0252,-0.0272,-0.0291,-0.0296,-0.0285,-0.0362,-0.0278,-0.0276,-0.0321,-0.0322,-0.0323,-0.0355,0,0.0075,0.0113,0.0119,0.0148,0.0166,0.0153,0.015,0.0131,0.0111,0.0094,0.0018,-0.0019,-0.0074,-0.0095,-0.0153,-0.0246,-0.0286,-0.0257,-0.0389,-0.0392,-0.0306,-0.028,-0.0287,-0.0309,-0.036,-0.0361,-0.0362,0,0.0098,0.012,0.0159,0.0191,0.0198,0.0211,0.021,0.0204,0.0167,0.0154,0.0108,0.0058,-0.0016,-0.0061,-0.0198,-0.0174,-0.0255,-0.0324,-0.0329,-0.0288,-0.0318,-0.0337,-0.0317,-0.0371,-0.037,-0.0369,-0.0369,0,0.0105,0.0149,0.0183,0.0193,0.0218,0.0235,0.0244,0.0225,0.0225,0.0197,0.0201,0.0107,0.0074,-0.0048,-0.0164,-0.0188,-0.0299,-0.036,-0.0361,-0.0355,-0.0405,-0.0401,-0.0459,-0.0459,-0.0459,-0.0459,-0.0459,0,0.0125,0.0157,0.0197,0.0214,0.0261,0.0263,0.0295,0.0297,0.0288,0.0295,0.0237,0.0232,0.0074,-0.0003,-0.0131,-0.0227,-0.0275,-0.0335,-0.0359,-0.0368,-0.036,-0.0463,-0.0463,-0.046,-0.046,-0.046,-0.0459,0,0.0137,0.0164,0.0204,0.0244,0.0272,0.0298,0.0348,0.0354,0.0358,0.037,0.0368,0.032,0.0242,0.0101,-0.0076,-0.016,-0.0282,-0.0313,-0.0275,-0.0291,-0.031,-0.0306,-0.0321,-0.0318,-0.0316,-0.0314,-0.0312,0,0.0148,0.0171,0.0228,0.0262,0.0294,0.0341,0.037,0.0389,0.0398,0.0426,0.043,0.0393,0.037,0.0197,0.0031,-0.0135,-0.021,-0.0231,-0.0285,-0.0275,-0.0297,-0.0296,-0.0295,-0.032,-0.0318,-0.0317,-0.0316,0,0.0157,0.0176,0.0205,0.0276,0.0325,0.0374,0.0424,0.0453,0.0469,0.0507,0.0548,0.0548,0.0422,0.027,0.0092,-0.0026,-0.0199,-0.0208,-0.0245,-0.0325,-0.027,-0.0292,-0.0293,-0.0306,-0.0307,-0.0308,-0.0308,-0.0309,0.0155,0.0177,0.0214,0.0286,0.0342,0.0403,0.0449,0.0503,0.0563,0.0636,0.0631,0.0622,0.0388,0.0168,0.0039,-0.0066,-0.0093,-0.0197,-0.0204,-0.0211,-0.0177,-0.0118,-0.0118,-0.0118,-0.0118,-0.0118,-0.0118,0,0.0143,0.018,0.0228,0.0301,0.0354,0.0401,0.0477,0.0528,0.0627,0.0682,0.0741,0.0501,0.0355,0.0157,0.0016,-0.0089,-0.0134,-0.0125,-0.0204,-0.0212,-0.0221,-0.019,-0.0133,-0.0133,-0.0133,-0.0133,0,0,0.0136,0.0164,0.0192,0.0285,0.0359,0.0438,0.0492,0.0598,0.0649,0.0725,0.0702,0.0604,0.0329,0.0163,0.001,-0.0027,-0.0078,-0.0028,-0.0008,-0.0089,-0.0095,-0.0258,-0.0219,0,0,0,0,0]}],[{"header":{"parameterUnit":"m.s-1","parameterCategory":2,"la1":30.2991,"la2":30.254,"lo1":-89.0895,"lo2":-89.0444,"dy":0.0017,"dx":0.0017,"nx":28,"ny":28,"refTime":"2025-07-31T03:00:00:Z","depth":"4","parameterNumber":2,"parameterNumberName":"U-component_of_CURRENTS"},"data":[0,0,0,0,0,0,0,0,0,0,0,0,0,0,0,0,0,0,0,0,0,0,0,0,0,0,0,0,0,0,0,0,0,0,0,0,0,0,0,0,0,0,0,0,0,0,0,0,0,0,0,0,0,0,0,0,0,0,-0.0194,-0.0194,0,-0.0158,-0.0158,-0.0158,-0.0103,-0.0102,-0.01,-0.0099,-0.0104,-0.0105,-0.0106,0,0,0,0,0,0,0,0,0,0,0,0,0,-0.0263,-0.0262,-0.0195,-0.0194,-0.0193,-0.0158,-0.0158,-0.0158,-0.0103,-0.0102,-0.01,-0.0099,-0.0103,-0.0105,-0.0107,0,0,0,0,0,0,0,0,0,0,0,0,0,-0.0234,-0.0262,-0.0195,-0.0159,-0.0155,-0.0158,-0.0158,-0.0158,-0.0104,-0.0102,-0.01,-0.0098,-0.0103,-0.0105,-0.0107,-0.0159,0,0,-0.0113,-0.0114,0,0,0,0,0,0,0,0,-0.0236,-0.0232,-0.0165,-0.0161,-0.0157,-0.013,-0.0183,-0.0159,-0.0104,-0.0127,-0.0099,-0.0097,-0.0115,-0.0116,-0.0118,-0.0159,-0.0159,-0.0113,-0.0114,-0.0115,-0.0116,0,0,0,0,0,0,0,-0.0238,-0.0233,-0.0184,-0.0164,-0.0159,-0.016,-0.0154,-0.0179,-0.0136,-0.0125,-0.012,-0.0111,-0.0114,-0.0117,-0.0118,-0.0159,-0.0113,-0.0115,-0.0116,-0.0117,-0.0186,-0.0187,0,0,0,0,0,0,-0.0234,-0.0235,-0.0185,-0.0182,-0.0188,-0.016,-0.0153,-0.0144,-0.0135,-0.013,-0.0112,-0.0108,-0.0114,-0.0116,-0.0118,-0.0117,-0.0115,-0.0117,-0.0118,-0.0186,-0.0187,-0.0187,0,0,0,0,0,0,-0.0236,-0.023,-0.0186,-0.0205,-0.0199,-0.016,-0.015,-0.0144,-0.0114,-0.0124,-0.0121,-0.0085,-0.0113,-0.0115,-0.0125,-0.0119,-0.0118,-0.012,-0.0185,-0.0186,-0.0187,-0.0155,0,0,0,0,0,0,-0.0238,-0.0231,-0.022,-0.0205,-0.0197,-0.0172,-0.0152,-0.0144,-0.0112,-0.0105,-0.0101,-0.0101,-0.0111,-0.0122,-0.0127,-0.0122,-0.0121,-0.0184,-0.0185,-0.0187,-0.0155,-0.0155,-0.0155,0,0,0,0,0,-0.0241,-0.0233,-0.022,-0.0214,-0.0185,-0.0171,-0.0168,-0.0137,-0.0112,-0.0103,-0.0103,-0.0099,-0.0133,-0.0125,-0.013,-0.0125,-0.0184,-0.0185,-0.0186,-0.0156,-0.0155,-0.0155,0,0,0,0,0,0,-0.0258,-0.0226,-0.0212,-0.0194,-0.0176,-0.016,-0.0144,-0.0125,-0.0118,-0.0103,-0.0112,-0.0113,-0.0122,-0.0135,-0.0125,-0.0151,-0.0157,-0.016,-0.0132,-0.0131,-0.0131,-0.0118,-0.0123,0,0,0,0,0,-0.0258,-0.024,-0.0216,-0.0201,-0.0187,-0.0163,-0.015,-0.0127,-0.0119,-0.011,-0.0106,-0.0115,-0.0141,-0.014,-0.0163,-0.0178,-0.0188,-0.018,-0.0179,-0.0178,-0.0173,-0.02,-0.0201,-0.0192,-0.0192,-0.0192,0,0,-0.0262,-0.024,-0.0231,-0.0203,-0.0183,-0.0171,-0.0149,-0.012,-0.0113,-0.0117,-0.0102,-0.0114,-0.0147,-0.0163,-0.0167,-0.0164,-0.0184,-0.018,-0.0179,-0.0175,-0.0202,-0.0203,-0.0203,-0.0193,-0.0193,-0.0193,0,0,-0.026,-0.0238,-0.022,-0.0205,-0.0167,-0.016,-0.0144,-0.0114,-0.01,-0.0096,-0.0104,-0.0112,-0.0131,-0.0156,-0.0175,-0.019,-0.0186,-0.0188,-0.0166,-0.0192,-0.0193,-0.0193,-0.0191,-0.0192,-0.018,-0.018,-0.018,0,-0.0261,-0.0236,-0.0215,-0.0193,-0.0178,-0.0151,-0.0134,-0.0131,-0.0108,-0.0104,-0.0084,-0.0118,-0.0135,-0.0175,-0.017,-0.0188,-0.0186,-0.0161,-0.0189,-0.0191,-0.0192,-0.019,-0.0191,-0.0179,-0.0179,-0.0179,-0.0179,0,-0.0248,-0.0224,-0.0211,-0.0179,-0.0168,-0.0145,-0.0135,-0.012,-0.0096,-0.0091,-0.0099,-0.0122,-0.0132,-0.0147,-0.0157,-0.0178,-0.0168,-0.0189,-0.0185,-0.019,-0.0188,-0.019,-0.0177,-0.0177,-0.0178,-0.0178,0,0,-0.0249,-0.0208,-0.0199,-0.0181,-0.0152,-0.0141,-0.0137,-0.0129,-0.012,-0.0106,-0.0101,-0.0136,-0.0117,-0.0137,-0.0152,-0.0171,-0.0171,-0.0166,-0.0168,-0.0152,-0.0197,-0.0177,-0.0177,-0.0186,-0.0187,-0.0187,-0.0186,0,-0.0236,-0.0197,-0.0184,-0.0158,-0.0138,-0.0126,-0.0128,-0.0121,-0.0112,-0.0106,-0.0126,-0.0124,-0.0125,-0.011,-0.0133,-0.0169,-0.0176,-0.0167,-0.0204,-0.0205,-0.0178,-0.0179,-0.0189,-0.0187,-0.0187,-0.0188,-0.0188,0,-0.0219,-0.0194,-0.0158,-0.0138,-0.0127,-0.0109,-0.0096,-0.0094,-0.01,-0.0089,-0.0086,-0.0091,-0.0108,-0.0106,-0.0153,-0.0139,-0.0152,-0.0182,-0.0183,-0.0177,-0.0189,-0.0187,-0.0191,-0.0191,-0.0191,-0.0191,-0.019,0,-0.0217,-0.0179,-0.0147,-0.0136,-0.0111,-0.0088,-0.0072,-0.0071,-0.0073,-0.0056,-0.0051,-0.007,-0.0069,-0.0101,-0.0142,-0.0131,-0.0205,-0.0205,-0.0204,-0.0202,-0.0232,-0.0232,-0.0235,-0.0235,-0.0235,-0.0235,-0.0235,0,-0.0206,-0.0183,-0.0131,-0.0111,-0.0078,-0.006,-0.0034,-0.0024,-0.0022,-0.0037,-0.002,-0.0057,-0.0065,-0.0111,-0.0141,-0.0178,-0.02,-0.0194,-0.0204,-0.0218,-0.0216,-0.0232,-0.0232,-0.0235,-0.0235,-0.0235,-0.0235,0,-0.0208,-0.0174,-0.0138,-0.0089,-0.0069,-0.0036,-0.0004,-0.0005,0.0016,-0.0003,0.0011,-0.0033,-0.0073,-0.0101,-0.0163,-0.017,-0.0218,-0.0229,-0.0227,-0.0239,-0.0186,-0.0184,-0.0194,-0.0193,-0.0192,-0.0192,-0.0192,0,-0.0205,-0.0179,-0.0116,-0.0088,-0.0052,-0.0006,0.0007,0.0025,0.0008,-0.0024,-0.0055,-0.0071,-0.01,-0.0163,-0.0202,-0.022,-0.023,-0.0222,-0.0201,-0.0174,-0.0184,-0.0183,-0.0182,-0.0191,-0.0191,-0.0191,-0.019,0,-0.0205,-0.0171,-0.0142,-0.0082,-0.0042,-0.003,-0.0007,-0.0014,-0.0022,-0.0018,-0.0078,-0.0089,-0.0139,-0.0173,-0.0169,-0.021,-0.0207,-0.0216,-0.0216,-0.0197,-0.0171,-0.0181,-0.018,-0.0189,-0.0189,-0.0189,-0.0189,0,-0.0203,-0.0184,-0.0136,-0.0084,-0.0049,-0.0046,-0.0036,-0.0049,-0.0055,-0.0071,-0.012,-0.0149,-0.0166,-0.0176,-0.0221,-0.0199,-0.0182,-0.0159,-0.0162,-0.0164,-0.0157,-0.012,-0.0126,0,0,0,0,0,-0.0197,-0.018,-0.0144,-0.0097,-0.007,-0.0053,-0.0056,-0.0061,-0.0073,-0.0096,-0.0086,-0.013,-0.014,-0.0193,-0.0161,-0.0218,-0.0193,-0.0181,-0.017,-0.0179,-0.0181,-0.0176,0,0,0,0,0,0,-0.0195,-0.0168,-0.0153,-0.0119,-0.0092,-0.0085,-0.0082,-0.0096,-0.0111,-0.0111,-0.0129,-0.0109,-0.0141,-0.0143,-0.0157,-0.016,-0.0144,-0.019,-0.0189,-0.0177,-0.0179,-0.0181,-0.0177,0,0,0,0,0]},{"header":{"parameterUnit":"m.s-1","parameterCategory":2,"la1":30.2991,"la2":30.254,"lo1":-89.0895,"lo2":-89.0444,"dy":0.0017,"dx":0.0017,"nx":28,"ny":28,"refTime":"2025-07-31T03:00:00:Z","depth":"4","parameterNumber":3,"parameterNumberName":"V-component_of_CURRENTS"},"data":[0,0,0,0,0,0,0,0,0,0,0,0,0,0,0,0,0,0,0,0,0,0,0,0,0,0,0,0,0,0,0,0,0,0,0,0,0,0,0,0,0,0,0,0,0,0,0,0,0,0,0,0,0,0,0,0,0,0,-0.0102,-0.0103,0,-0.0191,-0.0192,-0.0193,-0.0282,-0.0283,-0.0284,-0.0286,-0.0332,-0.0332,-0.0332,0,0,0,0,0,0,0,0,0,0,0,0,0,0.0016,0.0014,-0.0102,-0.0103,-0.0104,-0.0191,-0.0192,-0.0193,-0.0281,-0.0283,-0.0285,-0.0286,-0.0332,-0.0332,-0.0332,0,0,0,0,0,0,0,0,0,0,0,0,0,-0.0049,0.0013,-0.0101,-0.016,-0.0167,-0.0191,-0.0192,-0.0193,-0.0281,-0.0283,-0.0285,-0.0287,-0.0332,-0.0332,-0.0332,-0.0291,0,0,-0.0332,-0.0332,0,0,0,0,0,0,0,0,-0.0045,-0.0053,-0.015,-0.0156,-0.0163,-0.0229,-0.0168,-0.0225,-0.0281,-0.0235,-0.0286,-0.0288,-0.0293,-0.0297,-0.0307,-0.0293,-0.0295,-0.0332,-0.0332,-0.0332,-0.0332,0,0,0,0,0,0,0,-0.004,-0.0049,-0.0135,-0.0152,-0.016,-0.0174,-0.0186,-0.0179,-0.025,-0.024,-0.0247,-0.0259,-0.0297,-0.0307,-0.0308,-0.0296,-0.0332,-0.0332,-0.0332,-0.0332,-0.0325,-0.0325,0,0,0,0,0,0,-0.0033,-0.0045,-0.0132,-0.0138,-0.011,-0.0175,-0.0188,-0.0204,-0.0251,-0.0261,-0.0257,-0.0263,-0.0306,-0.0308,-0.031,-0.0343,-0.0332,-0.0332,-0.0332,-0.0325,-0.0325,-0.0325,0,0,0,0,0,0,-0.003,-0.004,-0.0129,-0.0095,-0.0108,-0.0175,-0.0193,-0.0205,-0.0252,-0.0265,-0.0275,-0.0296,-0.0307,-0.031,-0.0331,-0.0343,-0.0332,-0.0332,-0.0325,-0.0325,-0.0325,-0.0358,0,0,0,0,0,0,-0.0026,-0.0038,-0.0057,-0.0094,-0.0109,-0.0164,-0.0192,-0.0205,-0.0255,-0.0264,-0.03,-0.0305,-0.0309,-0.0331,-0.0331,-0.0343,-0.0332,-0.0326,-0.0325,-0.0325,-0.0357,-0.0359,-0.0361,0,0,0,0,0,-0.0021,-0.0039,-0.0057,-0.0069,-0.013,-0.0164,-0.0173,-0.0226,-0.0255,-0.0275,-0.03,-0.0306,-0.0329,-0.033,-0.033,-0.0343,-0.0326,-0.0325,-0.0325,-0.0357,-0.0359,-0.0361,0,0,0,0,0,0,-0.0003,-0.0051,-0.0072,-0.0105,-0.0141,-0.0181,-0.0208,-0.0239,-0.0274,-0.0291,-0.0304,-0.031,-0.0333,-0.0325,-0.0327,-0.0337,-0.0327,-0.0327,-0.0351,-0.0353,-0.0355,-0.0355,-0.0332,0,0,0,0,0,-0.0003,-0.003,-0.0073,-0.0102,-0.0121,-0.0167,-0.0193,-0.0228,-0.0259,-0.0281,-0.0304,-0.0318,-0.0322,-0.0331,-0.0335,-0.0337,-0.032,-0.0342,-0.0344,-0.0346,-0.0344,-0.0329,-0.0329,-0.0324,-0.0324,-0.0324,0,0,-0.0003,-0.0034,-0.0051,-0.01,-0.0133,-0.016,-0.0189,-0.0235,-0.0257,-0.0274,-0.0316,-0.0329,-0.0324,-0.0336,-0.0344,-0.0338,-0.0337,-0.0345,-0.0347,-0.0344,-0.0328,-0.0329,-0.033,-0.0324,-0.0324,-0.0324,0,0,-0.0011,-0.0046,-0.0071,-0.01,-0.0154,-0.0175,-0.0193,-0.0246,-0.0273,-0.0303,-0.032,-0.034,-0.0353,-0.0353,-0.0351,-0.0357,-0.0349,-0.0363,-0.0373,-0.0358,-0.0359,-0.0359,-0.0337,-0.0335,-0.0362,-0.0362,-0.0362,0,-0.0011,-0.005,-0.0083,-0.0114,-0.014,-0.0182,-0.0212,-0.0233,-0.0286,-0.0298,-0.0322,-0.0349,-0.0355,-0.0354,-0.0367,-0.0362,-0.0352,-0.037,-0.0362,-0.0361,-0.0361,-0.0338,-0.0336,-0.0364,-0.0363,-0.0363,-0.0363,0,-0.0035,-0.0071,-0.0089,-0.0137,-0.0164,-0.0198,-0.0228,-0.0258,-0.0294,-0.0314,-0.0342,-0.0355,-0.037,-0.0375,-0.0378,-0.0379,-0.0373,-0.0369,-0.036,-0.0364,-0.0339,-0.0336,-0.0366,-0.0365,-0.0365,-0.0364,0,0,-0.0022,-0.0091,-0.01,-0.0129,-0.0183,-0.0206,-0.0231,-0.0261,-0.028,-0.0322,-0.0342,-0.0359,-0.0381,-0.0379,-0.0387,-0.0381,-0.0377,-0.0383,-0.0382,-0.0367,-0.0344,-0.0347,-0.0344,-0.038,-0.038,-0.038,-0.0327,0,-0.0035,-0.0088,-0.0118,-0.0164,-0.0196,-0.023,-0.0245,-0.0275,-0.0301,-0.0325,-0.0337,-0.0357,-0.0374,-0.0392,-0.0391,-0.0385,-0.037,-0.0391,-0.0337,-0.0335,-0.0342,-0.0341,-0.0379,-0.0324,-0.0324,-0.0323,-0.0323,0,-0.0051,-0.0085,-0.013,-0.0185,-0.0201,-0.0222,-0.0258,-0.0279,-0.0302,-0.0324,-0.0347,-0.0364,-0.0372,-0.0383,-0.0367,-0.0385,-0.0367,-0.0355,-0.0353,-0.0342,-0.0332,-0.0318,-0.0316,-0.0317,-0.0317,-0.0318,-0.0318,0,-0.0031,-0.0095,-0.0129,-0.015,-0.0208,-0.0224,-0.0249,-0.0278,-0.029,-0.0319,-0.0333,-0.0352,-0.0359,-0.0352,-0.0339,-0.0359,-0.0307,-0.0323,-0.0299,-0.0298,-0.0296,-0.0297,-0.0292,-0.0292,-0.0292,-0.0293,-0.0293,0,-0.0038,-0.0068,-0.0121,-0.0141,-0.017,-0.0214,-0.0238,-0.0262,-0.0286,-0.0299,-0.033,-0.0339,-0.0355,-0.0336,-0.0328,-0.0301,-0.0291,-0.0298,-0.0286,-0.031,-0.0313,-0.0294,-0.0295,-0.0291,-0.0291,-0.0291,-0.0292,0,-0.0026,-0.0061,-0.0101,-0.0154,-0.0165,-0.0186,-0.0225,-0.0244,-0.0264,-0.0281,-0.0289,-0.0317,-0.0311,-0.03,-0.0276,-0.0277,-0.025,-0.0231,-0.0242,-0.0233,-0.0256,-0.0259,-0.0223,-0.0222,-0.0222,-0.0222,-0.0222,0,-0.0031,-0.0048,-0.0097,-0.0113,-0.0138,-0.0169,-0.0192,-0.0226,-0.0243,-0.0265,-0.0271,-0.0273,-0.029,-0.0253,-0.0247,-0.0216,-0.0213,-0.0195,-0.0252,-0.0257,-0.025,-0.0253,-0.0257,-0.0221,-0.0221,-0.0221,-0.0221,0,-0.0036,-0.0048,-0.0081,-0.0103,-0.0129,-0.0169,-0.02,-0.0201,-0.0242,-0.0244,-0.0265,-0.0273,-0.026,-0.0261,-0.0222,-0.0202,-0.0218,-0.0193,-0.0195,-0.0248,-0.0255,-0.0249,-0.0252,-0.022,-0.0221,-0.0221,-0.0221,0,-0.0037,-0.0059,-0.0087,-0.0111,-0.0134,-0.0177,-0.0193,-0.0224,-0.0242,-0.026,-0.0258,-0.0262,-0.0262,-0.025,-0.0213,-0.0199,-0.022,-0.0232,-0.0232,-0.0233,-0.0262,-0.0274,-0.0232,0,0,0,0,0,-0.0043,-0.0075,-0.0097,-0.0147,-0.0163,-0.018,-0.0208,-0.0224,-0.0234,-0.0252,-0.026,-0.0254,-0.0248,-0.0242,-0.0231,-0.0214,-0.021,-0.0202,-0.0222,-0.0216,-0.0217,-0.0252,0,0,0,0,0,0,-0.0059,-0.0082,-0.0106,-0.016,-0.0187,-0.023,-0.0243,-0.0257,-0.0267,-0.0264,-0.0257,-0.0257,-0.0241,-0.0253,-0.0233,-0.0228,-0.0242,-0.0193,-0.0193,-0.0215,-0.0216,-0.0217,-0.0253,0,0,0,0,0]}]]